Weather History for CWEL - October, 2012

Change the Weather History Date:

Friday, October 26, 2012

  Actual Average Record
Temperature  
Mean Temperature 46 °F -  
Max Temperature 48 °F - - ()
Min Temperature 45 °F - - ()
Degree Days  
Heating Degree Days 18    
Moisture  
Dew Point -    
Average Humidity    
Maximum Humidity    
Minimum Humidity    
Precipitation  
Precipitation 0.16 in - - ()
Sea Level Pressure  
Sea Level Pressure 30.12 in    
Wind  
Wind Speed 13 mph ()    
Max Wind Speed 18 mph    
Max Gust Speed -    
T = Trace of Precipitation, MM = Missing Value Source: Averaged Metar Reports

Daily Weather History Graph

Daily Weather History Graph

Search for Another Location

Airport or City:

Trip Planner

Search our weather history database for the weather conditions in past years. The results will help you decide how hot, cold, wet, or windy it might be!

Date:

Astronomy

Oct. 26, 2012 Rise Set
Actual Time 7:54 AM PDT 6:03 PM PDT
Civil Twilight 7:21 AM PDT 6:35 PM PDT
Nautical Twilight 6:44 AM PDT 7:13 PM PDT
Astronomical Twilight 6:07 AM PDT 7:49 PM PDT
Moon 4:31 PM PDT (10/26) 4:43 AM PDT (10/26)
Length of Visible Light 11h 14m
Length of Day
10h 08m
Waxing Gibbous, 91% of the Moon is Illuminated
Oct 26
Waxing Gibbous
Oct 29
Full
Nov 6
Last Quarter
Nov 13
New
Nov 20
First Quarter

Hourly Weather History & Observations

Time (PDT) Temp. Windchill Dew Point Humidity Pressure Visibility Wind Dir Wind Speed Gust Speed Precip Events Conditions
12:00 AM 47.5 °F - - N/A% 30.30 in - SSE 16.1 mph - N/A   Unknown
1:00 AM 47.1 °F - - N/A% 30.28 in - SSE 13.8 mph - 0.01 in   Unknown
2:00 AM 47.7 °F - - N/A% 30.27 in - ESE 13.8 mph - N/A   Unknown
3:00 AM 47.1 °F - - N/A% 30.25 in - East 16.1 mph - N/A   Unknown
4:00 AM 47.1 °F - - N/A% 30.23 in - East 16.1 mph - 0.01 in   Unknown
5:00 AM 47.1 °F - - N/A% 30.21 in - ESE 13.8 mph - N/A   Unknown
6:00 AM 46.2 °F 42.7 °F - N/A% 30.19 in - SSE 6.9 mph - 0.01 in   Unknown
8:00 AM 45.7 °F 42.0 °F - N/A% 30.15 in - SSE 6.9 mph - 0.02 in   Unknown
9:00 AM 45.5 °F 43.2 °F - N/A% 30.16 in - SSE 4.6 mph - 0.04 in   Unknown
11:00 AM 46 °F - - % 30.14 in - East 18.4 mph - -  
11:00 AM 46.2 °F 39.0 °F - N/A% 30.14 in - East 18.4 mph - 0.04 in   Unknown
12:00 PM 46.9 °F - - N/A% 30.13 in - ESE 18.4 mph - 0.02 in   Unknown
1:00 PM 47.5 °F - - N/A% 30.12 in - SE 17.3 mph - 0.01 in   Unknown
2:00 PM 47.5 °F - - N/A% 30.11 in - SE 17.3 mph - N/A   Unknown
3:00 PM 47.8 °F - - N/A% 30.08 in - SE 17.3 mph - N/A   Unknown
4:00 PM 47.3 °F - - N/A% 30.06 in - SE 18.4 mph - N/A   Unknown
5:00 PM 47 °F - - % 30.05 in - SE 17.3 mph - -  
5:00 PM 46.9 °F - - N/A% 30.05 in - SE 17.3 mph - N/A   Unknown
6:00 PM 45.9 °F 39.7 °F - N/A% 30.05 in - SE 13.8 mph - 0.02 in   Unknown
7:00 PM 45.9 °F 39.7 °F - N/A% 30.04 in - SE 13.8 mph - 0.02 in   Unknown
8:00 PM 46.2 °F 40.8 °F - N/A% 30.04 in - SE 11.5 mph - 0.04 in   Unknown
9:00 PM 45.5 °F 39.2 °F - N/A% 30.03 in - East 13.8 mph - 0.01 in   Unknown
10:00 PM 45.5 °F 39.9 °F - N/A% 30.02 in - East 11.5 mph - 0.01 in   Unknown
11:00 PM 46 °F - - % 30.01 in - ESE 9.2 mph - -  
11:00 PM 45.9 °F 41.2 °F - N/A% 30.01 in - ESE 9.2 mph - 0.01 in   Unknown